Regional Weather Roundup
Issued by NWS

Home | Current Version | Previous Version | Graphics & Text | Print | Product List | Glossary On
Versions: 1 2 3 4 5 6 7 8 9 10 11 12 13 14 15 16 17 18 19 20 21 22 23 24 25 26 27 28 29 30 31 32 33 34 35 36 37 38 39 40 41 42 43 44 45 46 47 48 49 50
924
ASUS45 KPSR 010310
RWRAZ

ARIZONA HOURLY REGIONAL WEATHER ROUNDUP
NATIONAL WEATHER SERVICE PHOENIX AZ
800 PM MST SAT APR 30 2016

NOTE: FAIR INDICATES FEW OR NO CLOUDS BELOW 12,000 FEET WITH NO
SIGNIFICANT WEATHER AND/OR OBSTRUCTIONS TO VISIBILITY.

AZZ001>003-036-010400-
NORTHWEST ARIZONA

CITY           SKY/WX    TMP DP  RH WIND       PRES   REMARKS
BULLHEAD CITY  PTCLDY    66  46  48 N17G26    29.75R
KINGMAN        MOCLDY    52  45  77 NE6       29.81R
$$

AZZ004>008-015-016-018-010400-
NORTH CENTRAL ARIZONA

CITY           SKY/WX    TMP DP  RH WIND       PRES   REMARKS
GRAND CANYON   CLOUDY    39  35  86 NE8       29.90S WCI  33
WILLIAMS       CLOUDY    37  36  93 NE8       29.94S WCI  31
PRESCOTT       LGT RAIN  42  40  92 NW17      29.80F
FLAGSTAFF      MIX PCPN  36  35  96 E9        29.87R WCI  29
PAYSON         LGT RAIN  46  41  81 CALM      29.85R
PAGE           MOCLDY    52  40  63 CALM      29.85S
$$

AZZ009>014-017-010400-
NORTHEAST ARIZONA

CITY           SKY/WX    TMP DP  RH WIND       PRES   REMARKS
WINSLOW        CLOUDY    46  42  86 NW12G20   29.86R
SAINT JOHNS    CLOUDY    51  36  56 NW13      29.81R
WINDOW ROCK    LGT RAIN  42  38  85 E7        29.92R
SHOW LOW       CLOUDY    45  32  61 CALM      29.86R
$$

AZZ023-010400-
GREATER PHOENIX AREA

CITY           SKY/WX    TMP DP  RH WIND       PRES   REMARKS
PHOENIX        MOCLDY    65  44  46 NE13      29.66S
BUCKEYE        MOCLDY    61  50  67 NW12      29.68R
LUKE AFB       MOCLDY    62  50  64 NE9       29.65S
DEER VALLEY    MOCLDY    62  43  49 NE10      29.68R
SCOTTSDALE     CLOUDY    62  47  57 NE13      29.70R
MESA-FALCON    MOCLDY   N/A N/A N/A N17G23    29.66R
CHANDLER       MOCLDY    66  43  42 N17       29.69R
$$

AZZ027-028-010400-
SOUTHWEST MARICOPA COUNTY AND PINAL COUNTY

CITY           SKY/WX    TMP DP  RH WIND       PRES   REMARKS
CASA GRANDE    CLOUDY    66  37  34 N14G22    29.71R
GILA BEND      FAIR      62  49  62 W6        29.65S
$$

AZZ503-504-507>509-010400-
SOUTHEAST ARIZONA

CITY           SKY/WX    TMP DP  RH WIND       PRES   REMARKS
TUCSON         PTCLDY    68  26  20 W16G24    29.74R
DAVIS-MONTHAN  PTCLDY    67  29  23 W15G22    29.72R
RYAN FIELD     CLEAR     68  28  22 W9        29.74R
NOGALES        PTCLDY    61  28  28 W14G20    29.77R
SIERRA VISTA   PTCLDY    62  24  24 S14G23    29.80R
DOUGLAS        PTCLDY    65  24  21 W18G25    29.76R
SAFFORD        CLOUDY    65  36  34 N15       29.70R
$$

AZZ020-021-025-026-031-010400-
SOUTHWEST ARIZONA

CITY           SKY/WX    TMP DP  RH WIND       PRES   REMARKS
YUMA           PTCLDY    72  44  36 N7        29.68R
$$

CAZ031-033-041-043-047-048-061-010400-
SOUTHERN CALIFORNIA

CITY           SKY/WX    TMP DP  RH WIND       PRES   REMARKS
DOWNTOWN L.A.  CLEAR     62  47  57 VRB5      29.79F
L.A. AIRPORT   PTCLDY    60  47  61 W10       29.80S
SAN DIEGO      PTCLDY    63  52  67 NW8       29.86R
BURBANK        CLEAR     61  46  57 S5        29.79R
ONTARIO        MOCLDY    62  44  51 SW13      29.79R
RIVERSIDE      MOCLDY    63  45  51 W9G20     29.79R
PALM SPRINGS   PTCLDY    71  47  42 NW20G25   29.72R
EL CENTRO NAS  CLOUDY   N/A N/A N/A NW16      29.70R
IMPERIAL       MOCLDY    74  43  32 NW12      29.67R
BLYTHE           N/A     68  46  45 N12       29.69R
NEEDLES        PTCLDY    68  46  45 N9        29.72R
$$

NVZ020-UTZ003-010400-
SOUTHERN NEVADA-UTAH

CITY           SKY/WX    TMP DP  RH WIND       PRES   REMARKS
LAS VEGAS      MOCLDY    57  48  72 S5        29.77R
SALT LAKE CITY CLOUDY    54  29  38 N10G18    29.98R
$$

NMZ009-TXZ055-010400-
NEW MEXICO-WEST TEXAS

CITY           SKY/WX    TMP DP  RH WIND       PRES   REMARKS
ALBUQUERQUE    CLOUDY    51  44  77 N13       29.89S
EL PASO        PTCLDY    68  15  13 E6        29.73R
$$


........................KEY........................
SKY/WX - SKY CONDITION/WEATHER
TMP    - TEMPERATURE IN FAHRENHEIT
DP     - DEW POINT IN FAHRENHEIT
RH     - RELATIVE HUMIDITY IN PERCENT
WIND   - DIRECTION AND SPEED IN MILES PER HOUR (MPH)
VRB    - VARIABLE WIND DIRECTION
PRES   - MEAN SEA LEVEL PRESSURE IN INCHES OF MERCURY
         F - FALLING PRESSURE   R - RISING PRESSURE
         S - STEADY PRESSURE
VSB    - VISIBILITY IN MILES
HX     - HEAT INDEX IN FAHRENHEIT
WCI    - WIND CHILL INDEX IN FAHRENHEIT
TC     - TEMPERATURE IN CELSIUS WHICH IS ALSO KNOWN AS
         TEMPERATURE IN CENTIGRADE
AFB    - AIR FORCE BASE
         LUKE AFB IS LUKE AIR FORCE BASE
         DAVIS-MONTHAN IS DAVIS-MONTHAN AIR FORCE BASE
NAS    - NAVAL AIR STATION
         EL CENTRO NAS IS EL CENTRO NAVAL AIR STATION
N/A    - NOT AVAILABLE





USA.gov is the U.S. government's official web portal to all federal, state and local government web resources and services.